Overview Statistics Trail Chart Weather Telemetry Raw packets
 

This is the latest recevied weather packets stored in our database for station/object N0KWA. If no packets are shown the sender has not sent any weather packets the latest 10 day(s).

<< 76 77 78 79 80 81 82 >>
Time Temp. Humidity Pressure Rain* Wind** Luminosity Snow
1787878655 25.56° C 99% 1015.8 hPa 0 mm - 0 W/m² -
1787878350 25.56° C 99% 1015.6 hPa 0 mm - 0 W/m² -
1787878045 26.11° C 99% 1015.4 hPa 0 mm - 0 W/m² -
1787877737 26.11° C 99% 1015.5 hPa 0 mm - 0 W/m² -
1787877431 26.11° C 99% 1015.3 hPa 0 mm - 0 W/m² -
1787877128 26.11° C 99% 1015.3 hPa 0 mm - 0 W/m² -
1787876826 26.11° C 99% 1015.1 hPa 0 mm - 0 W/m² -
1787876522 26.11° C 99% 1015.4 hPa 0 mm - 0 W/m² -
1787876215 26.11° C 98% 1015.2 hPa 0 mm - 0 W/m² -
1787875910 26.67° C 98% 1015.3 hPa 0 mm - 0 W/m² -
1787875610 26.67° C 98% 1015.4 hPa 0 mm - 0 W/m² -
1787875304 26.67° C 98% 1015.2 hPa 0 mm - 3 W/m² -
1787875002 26.67° C 98% 1015.2 hPa 0 mm - 3 W/m² -
1787874698 26.67° C 97% 1015.3 hPa 0 mm - 3 W/m² -
1787874396 26.67° C 97% 1015.3 hPa 0 mm - 5 W/m² -
1787874091 26.67° C 97% 1015.2 hPa 0 mm - 5 W/m² -
1787873791 26.67° C 96% 1015.2 hPa 0 mm - 6 W/m² -
1787873486 26.67° C 96% 1015.2 hPa 0 mm - 5 W/m² -
1787873181 26.67° C 95% 1015.3 hPa 0 mm - 6 W/m² -
1787872879 26.67° C 96% 1015.3 hPa 0 mm - 7 W/m² -
1787872575 26.67° C 95% 1015.4 hPa 0 mm - 8 W/m² -
1787872270 26.67° C 94% 1015.4 hPa 0 mm - 8 W/m² -
1787871970 26.67° C 93% 1015.5 hPa 0 mm - 8 W/m² -
1787871665 26.67° C 93% 1015.4 hPa 0 mm - 6 W/m² -
1787871361 27.22° C 92% 1015.5 hPa 0 mm - 7 W/m² -

* Rain latest hour (hover to see other rain measurements)
** Current wind speed in m/s (hover to see current wind gust speed)